Regional Weather Roundup
Issued by NWS Grand Forks, ND

Home | Current Version | Previous Version | Text Only | Print | Product List | Glossary On
Versions: 1 2 3 4 5 6 7 8 9 10 11 12 13 14 15 16 17 18 19 20 21 22 23 24 25 26 27 28 29 30 31 32 33 34 35 36 37 38 39 40 41 42 43 44 45 46 47 48 49 50
000
ASUS43 KFGF 270710
RWRFGF
PRAIRIE TO PINES  WEATHER ROUNDUP
NATIONAL WEATHER SERVICE EASTERN NORTH DAKOTA/GRAND FORKS ND
200 AM CDT FRI MAR 27 2015

 **SATELLITE DATA USED TO AUGMENT SKY COVER AT AUTOMATED STATIONS**
 *****  WEATHER ACROSS EASTERN NORTH DAKOTA  *****

CITY           SKY/WX    TMP DP  RH WIND       PRES   REMARKS
GRAND FORKS    CLEAR     16  11  80 CALM      30.30F
GRAND FRKS AFB CLEAR     14  11  89 W1        30.29F
GRAND FRKS NWS   N/A     14 N/A N/A MISG        N/A
DEVILS LAKE    CLEAR     19  14  79 S7        30.24F WCI  10
FARGO          CLEAR     11   5  77 NW3       30.31S
WAHPETON ARPT  SUNNY     18   9  68 N5        30.31S WCI  11
$$

 ***** WEATHER ACROSS CENTRAL AND WESTERN NORTH DAKOTA  *****

CITY           SKY/WX    TMP DP  RH WIND       PRES   REMARKS
BISMARCK       MOCLDY    25  16  68 SE9       30.23F WCI  15
MINOT          MOCLDY    27  18  69 SE8       30.16F WCI  19
JAMESTOWN      CLEAR     17  13  84 S5        30.26F WCI  10
MINOT AFB      MOCLDY    27  23  85 S10       30.15F WCI  17
GARRISON         N/A     28  19  69 S12       30.18F WCI  18
WILLISTON      CLOUDY    37  28  70 S6        30.09F
DICKINSON      CLOUDY    32  27  81 S12       30.09F WCI  23
HETTINGER      CLOUDY    32  28  85 SE8       30.14F WCI  25
$$

 *****  OTHER AIRPORT OBSERVATIONS IN OUR AREA  *****

CITY           SKY/WX    TMP DP  RH WIND       PRES   REMARKS
WALHALLA         N/A     18  14  86 S5        30.29S WCI  11
GRAFTON AIRPOR NOT AVBL
VALLEY CITY AR FAIR      16  16 100 CALM      30.27F
CANDO          NOT AVBL
CAVALIER APRT  FAIR      19  10  68 SE5       30.29F WCI  13
GWINNER        SUNNY     19  14  79 NE6         N/A  WCI  11
ROLLA          FAIR      23  23 100 S10       30.20F WCI  12
 ***** THE ABOVE OBSERVATIONS ARE NON NWS ARE NOT QUALITY
       CONTROLLED AND MAY MIS-REPORT RAIN FOR SNOW...
$$

  *****  WEATHER ACROSS NORTHERN MINNESOTA  *****

CITY           SKY/WX    TMP DP  RH WIND       PRES   REMARKS
FLAG ISLAND    CLEAR     12   7  79 CALM      30.27S
WARROAD        CLEAR     16   9  73 NW3       30.28F
ROSEAU         CLEAR     16   9  73 CALM      30.28F
HALLOCK        CLEAR     14   7  73 E3        30.29F
THF RVR FALLS  CLEAR     18  10  73 CALM      30.28F
BAUDETTE       CLEAR     13   5  70 CALM      30.26F
WASKISH        CLEAR      9   5  85 CALM      30.27S
CROOKSTON      CLEAR     18  10  73 CALM      30.31S
STEPHEN NDAWN    N/A     16   7  67 E3          N/A
GREENBUSH NDAW   N/A     16  10  79 NE1         N/A
$$
  *****  WEATHER ACROSS CENTRAL AND WEST MINNESOTA  *****

CITY           SKY/WX    TMP DP  RH WIND       PRES   REMARKS
FOSSTON        CLEAR     10   7  85 CALM      30.27F
BEMIDJI        CLEAR      9   2  72 NW3       30.26S
PARK RAPIDS    CLEAR     11   2  67 NW5       30.25R WCI   3
ELBOW LAKE     FAIR      15  11  82 NW3       30.28R
WADENA         CLEAR     16   5  62 N3        30.26R
DETROIT LAKES  CLEAR     18  14  86 CALM      30.27S
MOORHEAD       CLEAR     16  10  79 CALM      30.31S
FERGUS FALLS   CLEAR     16   9  73 N3        30.32R
MORRIS MN      CLEAR     18  12  79 NW7       30.28R WCI   8
STAPLES        CLEAR     12   1  62 CALM      30.26R
$$
  *****  WEATHER ELSEWHERE ACROSS MINNESOTA  *****

CITY           SKY/WX    TMP DP  RH WIND       PRES   REMARKS
DULUTH         CLEAR     15   1  53 N6        30.21S WCI   6
INTRNTL FALLS  CLEAR      8   4  83 CALM      30.26R
ELY            CLEAR     10   1  67 CALM      30.21F
CLOQUET        CLEAR     16   0  48 N5        30.23R WCI   9
WHEATON        CLEAR     18  10  73 N3        30.32S
BRAINERD       CLEAR     17   3  54 N5        30.25S WCI  10
HIBBING        CLEAR      7  -1  70 CALM      30.23S
ALEXANDRIA     CLEAR     17  11  77 N5        30.26R WCI  10
SAINT CLOUD    CLEAR     19   7  59 N5        30.25R WCI  12
MINNEAPOLIS    CLEAR     24   4  42 N9        30.23S WCI  14
$$

  *****  WEATHER ACROSS SOUTH DAKOTA  *****

CITY           SKY/WX    TMP DP  RH WIND       PRES   REMARKS
SIOUX FALLS    CLEAR     19  13  77 N5        30.26S WCI  12
BROOKINGS      NOT AVBL
WATERTOWN      CLEAR     15  10  80 N7        30.25S WCI   5
HURON          CLEAR     14  10  84 CALM      30.29R
SISSETON         N/A     17  13  84 N6        30.29S WCI   9
ABERDEEN       CLEAR     15  12  88 CALM      30.30S
MITCHELL       CLEAR     20  14  77 CALM      30.29S
PIERRE         MOCLDY    26  19  74 E6        30.25R WCI  19
MOBRIDGE       MOCLDY    26  14  60 SE9       30.23R WCI  17
RAPID CITY     CLOUDY    33  27  78 SE8       30.14F
$$

  *****  SOME WEATHER IN NEARBY STATES *****

CITY           SKY/WX    TMP DP  RH WIND       PRES   REMARKS
GLASGOW MT     MOCLDY    40  32  73 E14       29.98F
GREAT FALLS MT PTCLDY    47  36  65 SW10      30.11F
CHEYENNE WY    CLOUDY    42  26  53 SW12      30.18F
SCOTTSBLUFF NE CLOUDY    40  32  73 E7        30.15F
OMAHA NE       MOCLDY    31  25  78 N10       30.23R WCI  22
DES MOINES IA  CLOUDY    32  18  56 N8        30.19S WCI  25
DAVENPORT IA   CLOUDY    30  22  72 N10       30.12S WCI  21
CHICAGO IL     MOCLDY    31  18  58 N9        30.06F WCI  23
EAU CLAIRE WI  CLEAR     18   8  65 CALM      30.20S
LA CROSSE WI   CLEAR     25  10  53 NE9       30.20R WCI  15
$$

  *****  SOME NATIONAL WEATHER *****

CITY           SKY/WX    TMP DP  RH WIND       PRES   REMARKS
LA GUARDIA NY  LGT RAIN  43  38  82 N8        29.70S
RALEIGH NC     CLOUDY    65  57  75 SW10      29.69F
ATLANTA GA     CLOUDY    54  49  83 NW9       29.75F
NEW ORLEANS LA CLOUDY    58  51  78 N14       29.95F
OKLAHOMA CITY  CLOUDY    47  34  60 SW9       30.07F
ALBUQUERQUE NM PTCLDY    49  19  30 E5        30.27F
SALT LAKE CITY CLEAR     45  29  53 SE7       30.34S
LOS ANGELES CA CLEAR     65  51  60 E5        30.04S
BOISE ID       CLEAR     48  41  76 SE7       30.25F
SEATTLE WA     PTCLDY    55  48  77 N7        30.15S
$$

*** WEATHER ACROSS MANITOBA...SASKATCHEWAN AND ONTARIO ***
                ***ONTARIO***

CITY           SKY/WX    TMP DP  RH WIND       PRES   REMARKS
GERALDTON      CLEAR    -11 -15  84 N3        30.20S
THUNDER BAY    CLEAR     10   0  61 N5        30.28R WCI   2
SIOUX LOOKOUT  CLEAR     -6  -9  84 CALM      30.24S
TORONTO        MOCLDY    32  27  80 NW10      29.81F WCI  24
BIG TROUT LK   CLEAR     -8 -13  77 W3        30.21F
PICKLE LAKE    NOT AVBL
DRYDEN         CLEAR      9   3  78 CALM      30.23F
KENORA         CLEAR     14   1  57 CALM      30.25F
$$
                *** MANITOBA***

CITY           SKY/WX    TMP DP  RH WIND       PRES   REMARKS
BRANDON        MOCLDY    19  18  93 SE5       30.20F WCI  13
DAUPHIN        MOCLDY    12   9  85 CALM      30.19F
ISLAND LAKE    CLEAR     -2  -8  78 SE2       30.22F
PILOT MOUND      N/A     21  19  93 S9          N/A  WCI  11
THE PAS        PTCLDY    18  14  86 S8        30.12F WCI   7
THOMPSON       CLEAR      3  -9  55 S3        30.15F
WINNIPEG       CLEAR     16   7  67 S7        30.29F WCI   6
LYNN LAKE      CLOUDY    14   7  73 SW5       30.05F WCI   6
CHURCHILL      CLEAR      0  -9  65 SW8       30.09F WCI -15
GILLAM         CLEAR      7  -9  47 SW8       30.16F WCI  -6
$$
                ***SASKATCHEWAN***

CITY           SKY/WX    TMP DP  RH WIND       PRES   REMARKS
ESTEVAN        CLOUDY    32  25  74 SE8       30.08F WCI  25
KINDERSLEY     PTCLDY    34  32  93 SW5       29.94R
LLOYDMINSTER   CLOUDY    37  32  81 SW9       29.89F
PRINCE ALBERT  NOT AVBL
REGINA         FLURRIES  32  30  93 SE14      30.02F WCI  22
YORKTON        CLOUDY    27  23  86 S9        30.09F WCI  17
N. BATTLEFORD  PTCLDY    34  32  93 E5        29.94F
LA RONGE       LGT SNOW  30  28  93 SE9       29.98F WCI  22
SASKATOON      LGT RAIN  36  34  93 SE9       29.95F
SWIFT CURRENT  CLOUDY    39  32  75 SW12      29.92F
$$
NOTE: THESE ARE AUTOMATED STATIONS WITH LIMITED QUALITY CONTROL
      "FAIR" INDICATES FEW OR NO CLOUDS BELOW 12,000 FEET WITH NO
      SIGNIFICANT WEATHER AND/OR OBSTRUCTIONS TO VISIBILITY.
      SKY/WX - SKY CONDITION AND SIGNIFICANT WEATHER.
      TMP - AIR TEMPERATURE.    DP   - DEWPOINT TEMPERATURE.
      RH  - RELATIVE HUMIDITY.  PRES - PRESSURE.
      HX  - HEAT INDEX.         WCI  - WIND CHILL INDEX.
$


USA.gov is the U.S. government's official web portal to all federal, state and local government web resources and services.